User: anonymous   Login
Location: Unspecified
(0.0000°N, 0.0000°E)
Time: 11:30:48
(UTC+01:00)
Language:

PAS 1R - Orbit

View from above orbital plane
View from above orbital plane
View from above satellite
View from above satellite

Ground track
Ground track

The orbit data is extracted from the following two-line orbital elements,

1 26608U 00072A   18051.85132706 -.00000144 +00000-0 +00000-0 0  9998
2 26608 000.8252 092.8650 0001334 236.5945 284.8141 01.00272501010856
Epoch (UTC): 20 February 2018 20:25:54
Eccentricity: 0.0001334
inclination: 0.8252°
perigee height: 35780 km
apogee height: 35791 km
right ascension of ascending node: 92.8650°
argument of perigee: 236.5945°
revolutions per day: 1.00272501
mean anomaly at epoch: 284.8141°
orbit number at epoch: 1085

The dashed part of the orbit path shows where the satellite is in the earth's shadow,  

DLR